GW5028 Weather Reports


time (UTC)temp
F
wind
direction
speed
knots
gust
knots
rain 1hr
in
rain 24hr
in
rain mn
in
humidity
%
barometer
mb
20260508090722 41 154 0.0 0.0 0.00 0.00 0.00 99 1016.6
20260508090219 41 155 0.0 0.0 0.00 0.00 0.00 99 1016.3
20260508085715 41 153 0.0 0.0 0.00 0.00 0.00 99 1016.6
20260508085213 41 155 0.0 0.0 0.00 0.00 0.00 99 1016.5
20260508084708 41 155 0.0 0.0 0.00 0.00 0.00 99 1016.4
20260508084206 42 155 0.0 0.0 0.00 0.00 0.00 99 1016.4
20260508083703 42 158 0.0 0.0 0.00 0.00 0.00 99 1016.4
20260508083201 42 159 0.0 0.0 0.00 0.00 0.00 99 1016.2
20260508082655 42 162 0.0 0.0 0.00 0.00 0.00 99 1016.4
20260508082153 42 159 0.0 0.0 0.00 0.00 0.00 99 1016.4
20260508081651 42 159 0.0 0.0 0.00 0.00 0.00 99 1016.2
20260508081147 42 159 0.0 0.0 0.00 0.00 0.00 99 1016.3
20260508080644 42 159 0.0 0.0 0.00 0.00 0.00 99 1016.1
20260508080142 42 159 0.0 0.0 0.00 0.00 0.00 99 1016.1
20260508075638 43 165 0.9 0.9 0.00 0.00 0.00 99 1016.1
20260508075136 43 149 0.0 0.0 0.00 0.00 0.00 99 1016.2
20260508074633 42 161 0.0 0.0 0.00 0.00 0.00 99 1016.2
20260508074130 42 165 0.0 0.0 0.00 0.00 0.00 99 1016.1
20260508073627 43 166 0.0 0.0 0.00 0.00 0.00 99 1016.2
20260508073125 43 163 0.0 0.0 0.00 0.00 0.00 99 1016.0
20260508072620 43 158 0.0 0.0 0.00 0.00 0.00 99 1016.1
20260508072118 43 163 0.0 0.0 0.00 0.00 0.00 99 1015.6
20260508071615 43 160 0.0 0.0 0.00 0.00 0.00 99 1015.9
20260508071114 43 159 0.0 0.0 0.00 0.00 0.00 99 1015.7
20260508070611 43 159 0.0 0.0 0.00 0.00 0.00 99 1015.9
20260508070109 43 159 0.0 0.0 0.00 0.00 0.00 99 1016.1
20260508065606 44 162 0.0 0.9 0.00 0.00 0.00 99 1015.9
20260508065104 43 152 0.0 0.0 0.00 0.00 0.00 99 1015.6
20260508064601 44 168 0.0 0.9 0.00 0.00 0.00 99 1015.6
20260508064059 44 151 0.0 0.0 0.00 0.00 0.00 99 1015.6
20260508063556 44 150 0.0 0.0 0.00 0.00 0.00 99 1015.7
20260508063054 44 151 0.0 0.0 0.00 0.00 0.00 99 1015.7
20260508062551 44 151 0.0 0.0 0.00 0.00 0.00 99 1016.0
20260508062048 44 151 0.0 0.0 0.00 0.00 0.00 99 1015.9
20260508061546 44 149 0.0 0.0 0.00 0.00 0.00 99 1015.9
20260508061042 44 155 0.0 0.0 0.00 0.00 0.00 99 1015.7
20260508060539 44 162 0.0 0.0 0.00 0.00 0.00 99 1015.7
20260508060037 44 157 0.0 0.0 0.00 0.00 0.00 99 1016.0
20260508055532 44 155 0.0 0.0 0.00 0.00 0.00 99 1015.6
20260508055029 44 155 0.0 0.0 0.00 0.00 0.00 99 1015.9
20260508054526 44 155 0.0 0.0 0.00 0.00 0.00 99 1015.7
20260508054023 44 155 0.0 0.0 0.00 0.00 0.00 99 1015.7
20260508053520 45 157 0.0 0.0 0.00 0.00 0.00 99 1015.6
20260508053018 45 158 0.0 0.0 0.00 0.00 0.00 99 1015.6
20260508052515 45 154 0.0 0.0 0.00 0.00 0.00 99 1015.5
20260508052012 45 149 0.0 0.0 0.00 0.00 0.00 99 1015.6
20260508051508 45 158 0.0 0.0 0.00 0.00 0.00 99 1015.9
20260508051003 45 153 0.0 0.0 0.00 0.00 0.00 99 1015.5
20260508050500 46 154 0.0 0.0 0.00 0.00 0.00 99 1015.5
20260508045956 46 154 0.0 0.0 0.00 0.00 0.00 99 1015.4
20260508045454 46 154 0.0 0.0 0.00 0.00 0.00 99 1015.6
20260508044951 46 157 0.0 0.0 0.00 0.00 0.00 99 1015.6
20260508044448 46 163 0.0 0.9 0.00 0.00 0.00 99 1015.6
20260508043943 46 154 0.0 0.0 0.00 0.00 0.00 99 1015.4
20260508043441 46 155 0.0 0.0 0.00 0.00 0.00 99 1015.3
20260508042937 46 155 0.0 0.0 0.00 0.00 0.00 99 1015.3
20260508042435 46 155 0.0 0.0 0.00 0.00 0.00 99 1015.4
20260508041932 46 155 0.0 0.0 0.00 0.00 0.00 99 1015.1
20260508041428 46 155 0.0 0.0 0.00 0.00 0.00 99 1015.0
20260508040925 47 155 0.0 0.0 0.00 0.00 0.00 99 1014.8
20260508040422 47 158 0.0 0.0 0.00 0.00 0.00 99 1015.0
20260508035920 48 152 0.0 0.0 0.00 0.20 0.20 99 1015.0
20260508035417 47 149 0.0 0.9 0.00 0.20 0.20 99 1015.3
20260508034913 47 153 0.0 0.0 0.00 0.20 0.20 99 1014.9
20260508034411 48 153 0.0 0.0 0.00 0.20 0.20 99 1014.9
20260508033907 48 154 0.0 0.0 0.00 0.20 0.20 99 1015.1
20260508033406 48 156 0.0 0.0 0.00 0.20 0.20 99 1014.9
20260508032903 48 156 0.0 0.0 0.00 0.20 0.20 99 1014.9
20260508032400 48 156 0.0 0.0 0.00 0.20 0.20 99 1014.9
20260508031857 48 157 0.0 0.0 0.00 0.20 0.20 99 1015.0
20260508031354 48 151 0.0 0.0 0.00 0.20 0.20 99 1014.8
20260508030850 49 151 0.0 0.0 0.00 0.20 0.20 99 1014.8
20260508030347 49 151 0.0 0.0 0.00 0.20 0.20 99 1014.7
20260508025844 49 151 0.0 0.0 0.00 0.20 0.20 99 1014.6
20260508025341 49 151 0.0 0.0 0.00 0.20 0.20 99 1014.6
20260508024838 50 151 0.0 0.0 0.00 0.20 0.20 99 1014.5
20260508024334 50 152 0.0 0.0 0.00 0.20 0.20 99 1014.4
20260508023831 50 157 0.0 0.0 0.00 0.20 0.20 99 1014.5
20260508023328 50 158 0.0 0.0 0.00 0.20 0.20 99 1014.5
20260508022824 50 158 0.0 0.0 0.00 0.20 0.20 99 1014.5
20260508022320 51 158 0.9 0.9 0.00 0.20 0.20 99 1014.3
20260508021818 51 153 0.0 0.0 0.00 0.20 0.20 99 1014.2
20260508021314 51 153 0.0 0.0 0.00 0.20 0.20 99 1014.1
20260508020810 51 153 0.0 0.0 0.00 0.20 0.20 99 1014.1
20260508020308 51 153 0.0 0.9 0.00 0.20 0.20 99 1013.8
20260508015804 51 163 0.0 0.0 0.00 0.20 0.20 99 1013.9
20260508015305 51 179 0.0 0.9 0.00 0.20 0.20 99 1013.8
20260508014758 51 151 0.0 0.0 0.00 0.20 0.20 99 1013.8
20260508014256 51 152 0.0 0.0 0.00 0.20 0.20 99 1013.4
20260508013751 52 156 0.0 0.0 0.00 0.20 0.20 99 1013.6
20260508013248 52 150 0.0 0.0 0.00 0.20 0.20 99 1013.4
20260508012745 52 148 0.0 0.0 0.00 0.20 0.20 99 1013.3
20260508012242 53 152 0.0 0.0 0.00 0.20 0.20 99 1013.2
20260508011740 53 152 0.0 0.0 0.00 0.20 0.20 99 1013.0
20260508011237 53 155 0.0 0.0 0.00 0.20 0.20 99 1013.2
20260508010734 53 155 0.0 0.0 0.00 0.20 0.20 99 1013.0
20260508010232 53 155 0.0 0.0 0.00 0.20 0.20 99 1012.9
20260508005729 54 155 0.0 0.0 0.00 0.20 0.20 99 1012.8
20260508005226 54 159 0.0 0.0 0.00 0.20 0.20 99 1013.0
20260508004721 54 163 0.0 0.0 0.00 0.20 0.20 98 1012.8
20260508004218 54 152 0.0 0.0 0.00 0.20 0.20 98 1013.0
20260508003714 54 152 0.0 0.0 0.00 0.20 0.20 98 1012.7
20260508003212 54 147 0.0 0.0 0.00 0.20 0.20 97 1012.8
20260508002708 55 152 0.0 0.0 0.00 0.20 0.20 97 1012.9
20260508002206 55 154 0.0 0.0 0.00 0.20 0.20 97 1012.9
20260508001701 55 151 0.0 0.0 0.00 0.20 0.20 96 1013.1
20260508001157 56 151 0.0 0.0 0.00 0.20 0.20 95 1012.9
20260508000654 56 159 0.0 0.0 0.00 0.20 0.20 95 1012.9
20260508000151 56 155 0.0 0.0 0.00 0.20 0.20 94 1012.8
20260507235647 57 150 0.0 0.0 0.00 0.20 0.20 93 1012.8
20260507235145 57 149 0.0 0.0 0.00 0.20 0.20 92 1012.6
20260507234642 57 153 0.0 0.0 0.00 0.20 0.20 92 1012.6
20260507234138 57 148 0.0 0.0 0.00 0.20 0.20 92 1012.8
20260507233635 57 146 0.0 0.0 0.00 0.20 0.20 92 1012.6
20260507233133 57 153 0.0 0.0 0.00 0.20 0.20 92 1012.3
20260507232629 57 147 0.0 0.9 0.00 0.20 0.20 92 1012.2
20260507232127 58 114 0.0 0.9 0.00 0.20 0.20 91 1012.2
20260507231623 58 152 0.0 0.0 0.00 0.20 0.20 91 1012.2
20260507231121 57 151 0.0 0.9 0.00 0.20 0.20 91 1012.2
20260507230617 57 150 0.0 0.9 0.00 0.20 0.20 91 1011.9
20260507230114 57 141 0.9 1.7 0.00 0.20 0.20 91 1011.8
20260507225608 58 145 0.0 2.6 0.00 0.20 0.20 90 1011.7
20260507225105 58 151 0.9 1.7 0.00 0.20 0.20 89 1011.7
20260507224601 59 143 0.9 3.5 0.00 0.20 0.20 89 1011.6
20260507224057 59 112 0.0 1.7 0.00 0.20 0.20 89 1011.7
20260507223553 59 156 0.0 1.7 0.00 0.20 0.20 88 1011.6
20260507223051 60 159 0.9 2.6 0.00 0.20 0.20 89 1011.2
20260507222548 59 149 0.9 1.7 0.00 0.20 0.20 90 1011.3
20260507222044 59 147 0.9 1.7 0.00 0.20 0.20 90 1011.4
20260507221541 59 116 0.0 0.9 0.00 0.20 0.20 90 1011.4
20260507221038 59 163 0.0 1.7 0.00 0.20 0.20 91 1011.2
20260507220535 59 150 0.0 1.7 0.00 0.20 0.20 90 1011.2
20260507220032 59 149 0.9 2.6 0.00 0.20 0.20 90 1011.1
20260507215528 59 100 0.9 2.6 0.00 0.20 0.20 90 1011.1
20260507215026 59 140 0.9 2.6 0.00 0.20 0.20 90 1011.0
20260507214523 59 93 1.7 1.7 0.00 0.20 0.20 90 1011.1
20260507214019 59 158 0.9 2.6 0.00 0.20 0.20 90 1011.0
20260507213515 59 146 0.0 3.5 0.00 0.20 0.20 89 1010.9
20260507213013 59 113 0.9 2.6 0.00 0.20 0.20 89 1010.9
20260507212508 60 127 1.7 3.5 0.00 0.20 0.20 89 1010.7
20260507212005 60 112 1.7 2.6 0.00 0.20 0.20 89 1010.6
20260507211502 59 142 1.7 2.6 0.00 0.20 0.20 91 1010.8
20260507210958 59 115 1.7 3.5 0.00 0.20 0.20 89 1010.8
20260507210455 60 137 0.0 1.7 0.00 0.20 0.20 90 1010.7
20260507205952 60 121 0.9 3.5 0.00 0.20 0.20 90 1010.8
20260507205449 59 152 0.0 3.5 0.00 0.20 0.20 90 1010.5
20260507204945 59 188 1.7 3.5 0.00 0.20 0.20 91 1010.8
20260507204442 59 148 0.9 2.6 0.00 0.20 0.20 91 1010.7
20260507203939 59 100 0.9 3.5 0.00 0.20 0.20 90 1010.7
20260507203437 59 79 1.7 2.6 0.00 0.20 0.20 91 1010.4
20260507202933 60 128 1.7 2.6 0.00 0.20 0.20 91 1010.5
20260507202430 60 90 3.5 5.2 0.00 0.20 0.20 90 1010.6
20260507201926 60 147 1.7 3.5 0.00 0.20 0.20 90 1010.6
20260507201421 61 76 0.9 5.2 0.00 0.20 0.20 89 1010.6
20260507200918 61 159 0.0 1.7 0.00 0.20 0.20 91 1010.6
20260507200414 60 145 1.7 2.6 0.00 0.20 0.20 93 1010.7
20260507195910 59 147 0.9 1.7 0.05 0.20 0.20 94 1011.0
20260507195408 58 159 0.9 6.1 0.05 0.20 0.20 94 1011.1
20260507194905 58 150 0.9 3.5 0.00 0.19 0.19 94 1011.2
20260507194401 58 151 0.0 2.6 0.00 0.19 0.19 95 1011.2
20260507193857 58 215 0.9 1.7 0.00 0.19 0.19 95 1010.9
20260507193355 58 120 0.9 5.2 0.00 0.19 0.19 95 1010.8
20260507192851 58 98 2.6 5.2 0.00 0.19 0.19 95 1010.9
20260507192347 59 126 0.9 1.7 0.00 0.19 0.19 95 1011.2
20260507191844 59 131 0.9 1.7 0.00 0.19 0.19 95 1011.2
20260507191340 59 153 0.9 6.1 0.14 0.19 0.19 94 1010.6
20260507190837 60 69 1.7 3.5 0.07 0.18 0.18 92 1010.3
20260507190335 60 162 0.9 2.6 0.00 0.17 0.17 91 1010.5
20260507185834 60 59 2.6 3.5 0.00 0.17 0.17 90 1010.5
20260507185330 61 137 1.7 2.6 0.00 0.17 0.17 90 1010.7
20260507184827 61 111 0.9 3.5 0.00 0.17 0.17 90 1011.0
20260507184326 61 131 0.9 1.7 0.00 0.17 0.17 89 1011.0
20260507183822 61 104 0.9 3.5 0.00 0.17 0.17 89 1010.8
20260507183319 62 239 1.7 3.5 0.00 0.17 0.17 89 1010.8
20260507182817 62 117 1.7 6.1 0.00 0.17 0.17 88 1010.6
20260507182312 62 300 1.7 3.5 0.00 0.17 0.17 89 1010.6
20260507181809 62 153 1.7 2.6 0.00 0.17 0.17 89 1010.6
20260507181304 62 148 0.9 2.6 0.00 0.17 0.17 90 1010.5
20260507180801 62 150 1.7 2.6 0.00 0.17 0.17 91 1010.6
20260507180258 62 106 1.7 5.2 0.00 0.17 0.17 90 1010.6
20260507175754 62 121 2.6 5.2 0.00 0.17 0.17 90 1010.6
20260507175251 63 81 2.6 6.1 0.00 0.17 0.17 89 1010.6
20260507174748 64 63 3.5 6.1 0.00 0.17 0.17 88 1010.6
20260507174246 64 107 0.9 3.5 0.00 0.17 0.17 89 1010.6
20260507173744 64 152 0.0 3.5 0.00 0.17 0.17 88 1010.5
20260507173241 65 153 2.6 5.2 0.00 0.17 0.17 88 1010.7
20260507172737 65 150 0.0 2.6 0.00 0.17 0.17 88 1010.6
20260507172234 65 95 3.5 3.5 0.00 0.17 0.17 88 1010.8
20260507171734 65 60 2.6 3.5 0.00 0.17 0.17 88 1010.8
20260507171232 65 82 0.0 2.6 0.00 0.17 0.17 89 1010.6
20260507170729 65 153 0.0 1.7 0.00 0.17 0.17 89 1010.8
20260507170225 65 157 0.9 1.7 0.00 0.17 0.17 90 1011.0
20260507165721 65 128 0.9 2.6 0.00 0.17 0.17 92 1011.0
20260507165217 64 82 0.9 3.5 0.00 0.17 0.17 93 1010.9
20260507164713 64 87 1.7 2.6 0.00 0.17 0.17 92 1010.9
20260507164211 65 91 1.7 3.5 0.00 0.17 0.17 91 1010.7
20260507163708 65 84 1.7 3.5 0.00 0.17 0.17 93 1010.6
20260507163206 64 165 2.6 3.5 0.00 0.17 0.17 93 1010.6
20260507162701 64 144 0.9 3.5 0.00 0.17 0.17 94 1010.5
20260507162157 64 156 0.9 1.7 0.00 0.17 0.17 94 1010.6
20260507161654 64 148 0.9 3.5 0.00 0.17 0.17 95 1010.5
20260507161150 64 136 1.7 3.5 0.00 0.17 0.17 96 1010.5
20260507160647 63 113 1.7 3.5 0.00 0.17 0.17 96 1010.5
20260507160143 63 130 1.7 3.5 0.00 0.17 0.17 96 1010.7
20260507155639 63 151 2.6 3.5 0.00 0.17 0.17 96 1010.9
20260507155136 64 120 0.0 1.7 0.00 0.17 0.17 96 1010.8
20260507154632 66 150 0.9 0.9 0.00 0.17 0.17 97 1011.0
20260507154130 65 149 0.0 0.9 0.00 0.17 0.17 97 1011.0
20260507153626 66 152 0.0 0.0 0.00 0.17 0.17 97 1010.7
20260507153123 65 153 0.0 0.0 0.00 0.17 0.17 97 1010.8
20260507152619 65 153 0.0 0.0 0.00 0.17 0.17 98 1011.0
20260507152115 65 152 0.0 0.0 0.00 0.17 0.17 98 1011.0
20260507151611 65 152 0.0 0.0 0.00 0.17 0.17 98 1011.4
20260507151109 65 145 0.0 0.9 0.00 0.17 0.17 98 1011.6
20260507150606 65 153 0.0 0.0 0.00 0.17 0.17 98 1011.2
20260507145557 65 168 0.0 0.9 0.00 0.17 0.17 97 1011.2
20260507145056 65 180 1.7 1.7 0.00 0.17 0.17 98 1011.0
20260507144552 65 151 0.0 0.0 0.00 0.17 0.17 99 1011.4
20260507144050 65 167 1.7 1.7 0.00 0.17 0.17 99 1011.3
20260507143546 65 140 0.9 1.7 0.00 0.17 0.17 99 1010.9
20260507143039 65 156 0.0 0.0 0.00 0.17 0.17 99 1011.0
20260507142533 64 183 0.0 0.0 0.00 0.17 0.17 99 1010.6
20260507142031 64 182 0.0 0.0 0.00 0.17 0.17 99 1010.7
20260507141527 65 157 0.0 0.0 0.00 0.17 0.17 99 1010.4
20260507141023 64 169 0.0 0.0 0.00 0.17 0.17 99 1010.8
20260507140520 64 168 0.9 0.9 0.00 0.17 0.17 99 1010.9
20260507140018 64 167 0.0 0.9 0.00 0.17 0.17 99 1010.7
20260507135514 64 155 0.9 1.7 0.00 0.17 0.17 99 1010.4
20260507135012 64 190 1.7 1.7 0.00 0.17 0.17 99 1010.8
20260507134508 64 158 0.0 0.0 0.00 0.17 0.17 99 1011.0
20260507134004 64 167 0.0 1.7 0.00 0.17 0.17 99 1010.8
20260507133500 63 156 0.0 0.0 0.00 0.17 0.17 99 1010.7
20260507132959 63 172 0.0 0.0 0.00 0.17 0.17 99 1011.0
20260507132455 63 159 0.0 0.0 0.00 0.17 0.17 99 1010.6
20260507131951 63 151 0.0 0.0 0.00 0.17 0.17 99 1010.6
20260507131448 63 159 0.0 0.0 0.00 0.17 0.17 99 1010.9
20260507130945 63 168 0.9 1.7 0.00 0.17 0.17 99 1011.1
20260507130442 62 146 0.9 0.9 0.05 0.17 0.17 99 1010.9
20260507125941 62 142 0.9 0.9 0.05 0.17 0.17 99 1010.8
20260507125438 62 145 0.0 0.0 0.07 0.16 0.16 99 1011.2
20260507124935 62 155 0.0 0.9 0.07 0.16 0.16 99 1011.6
20260507124432 62 156 0.0 0.0 0.00 0.15 0.15 99 1011.6
20260507123930 62 163 0.0 0.9 0.05 0.15 0.15 99 1011.7
20260507123427 62 161 0.0 0.9 0.05 0.15 0.15 99 1012.3
20260507122923 62 160 0.0 0.0 0.07 0.14 0.14 99 1012.3
20260507122418 62 167 0.0 1.7 0.12 0.14 0.14 99 1012.4
20260507121915 62 180 0.9 1.7 0.12 0.13 0.13 99 1012.1
20260507121410 62 155 0.0 0.0 0.07 0.12 0.12 99 1011.8
20260507120907 62 158 0.0 0.0 0.05 0.11 0.11 99 1011.8
20260507120404 62 191 0.9 1.7 0.05 0.11 0.11 99 1011.9
20260507115900 62 160 0.0 0.9 0.07 0.10 0.10 99 1011.5
20260507115356 62 155 0.0 0.0 0.12 0.10 0.10 99 1011.7
20260507114852 62 154 0.0 0.9 0.12 0.09 0.09 99 1011.6
20260507114349 62 162 0.0 0.9 0.07 0.08 0.08 99 1011.9
20260507113846 62 160 0.0 0.0 0.12 0.08 0.08 99 1011.9
20260507113343 62 159 0.0 0.0 0.12 0.07 0.07 99 1011.8
20260507112841 62 163 0.0 0.0 0.07 0.06 0.06 99 1011.6
20260507112337 62 159 0.0 0.0 0.00 0.05 0.05 99 1011.4
20260507111836 62 159 0.0 0.0 0.00 0.05 0.05 99 1011.3
20260507111332 62 156 0.0 0.0 0.00 0.05 0.05 99 1011.5
20260507110828 62 155 0.0 0.0 0.00 0.05 0.05 99 1011.3
20260507110324 62 154 0.0 0.0 0.00 0.05 0.05 99 1011.3
20260507105821 62 153 0.0 0.0 0.00 0.05 0.05 99 1011.1
20260507105318 62 153 0.0 0.0 0.00 0.05 0.05 99 1011.0
20260507104815 62 153 0.0 0.0 0.00 0.05 0.05 99 1011.2
20260507104311 62 151 0.0 0.0 0.00 0.05 0.05 99 1011.2
20260507103807 62 163 0.0 0.0 0.00 0.05 0.05 99 1011.1
20260507103304 62 158 0.0 0.9 0.00 0.05 0.05 99 1011.3
20260507102800 62 156 0.0 0.0 0.00 0.05 0.05 99 1011.2
20260507102257 62 158 0.0 0.0 0.00 0.05 0.05 99 1011.2
20260507101753 62 158 0.0 0.9 0.00 0.05 0.05 99 1011.0
20260507101248 62 157 0.0 1.7 0.00 0.05 0.05 99 1010.9
20260507100745 62 154 0.9 0.9 0.00 0.05 0.05 99 1010.8
20260507100244 62 158 0.9 0.9 0.00 0.05 0.05 99 1011.1
20260507095742 62 157 0.0 0.0 0.00 0.05 0.05 99 1011.2
20260507095238 62 160 0.0 0.0 0.00 0.05 0.05 99 1011.2
20260507094735 62 157 0.0 0.9 0.00 0.05 0.05 99 1011.2
20260507094232 62 163 0.9 1.7 0.00 0.05 0.05 99 1011.1
20260507093728 62 161 0.0 0.9 0.00 0.05 0.05 99 1011.1
20260507093227 62 160 0.9 1.7 0.00 0.05 0.05 99 1011.1
20260507092725 62 155 0.0 0.0 0.00 0.05 0.05 99 1011.1
20260507092220 62 158 0.0 0.0 0.00 0.05 0.05 99 1011.1
20260507091717 62 155 0.0 0.0 0.00 0.05 0.05 99 1010.9
20260507091214 62 154 0.0 0.0 0.00 0.05 0.05 99 1011.1